Weather History for Shawano, WI

Change the Weather History Date:

Saturday, January 19, 2013

  Actual Average (KGRB) Record (KGRB)
Temperature  
Mean Temperature 28 °F 16 °F  
Max Temperature 42 °F 24 °F 44 °F (1933)
Min Temperature 12 °F 9 °F -28 °F (1994)
Degree Days  
Heating Degree Days 37 49  
Month to date heating degree days 921  
Since 1 July heating degree days 4011  
Cooling Degree Days 0 0  
Month to date cooling degree days 0  
Year to date cooling degree days 0  
Moisture  
Dew Point 23 °F    
Average Humidity 77    
Maximum Humidity 93    
Minimum Humidity 53    
Precipitation  
Precipitation 0.00 in 0.03 in 0.66 in (1907)
Month to date precipitation 0.72  
Year to date precipitation 0.72  
Snow  
Snow 0.00 in 0.40 in 4.10 in (1988)
Month to date snowfall 7.8  
Since 1 July snowfall 25.1  
Snow Depth -    
Sea Level Pressure  
Sea Level Pressure 29.68 in    
Wind  
Wind Speed 5 mph (West)    
Max Wind Speed 28 mph    
Max Gust Speed 40 mph    
Visibility 9 miles    
Events Snow    
T = Trace of Precipitation, MM = Missing Value Source: NWS Daily Summary

Daily Weather History Graph

Daily Weather History Graph

Search for Another Location

Airport:

Trip Planner

Search our weather history database for the weather conditions in past years. The results will help you decide how hot, cold, wet, or windy it might be!

Date:

Astronomy

Jan. 19, 2013 Rise Set
Actual Time 7:25 AM CST 4:45 PM CST
Civil Twilight 6:53 AM CST 5:17 PM CST
Nautical Twilight 6:17 AM CST 5:53 PM CST
Astronomical Twilight 5:42 AM CST 6:28 PM CST
Moon 11:14 AM CST (1/19) 12:55 AM CST (1/19)
Length of Visible Light 10h 24m
Length of Day
9h 19m
First Quarter, 57% of the Moon is Illuminated
Jan 19
First Quarter
Jan 26
Full
Feb 3
Last Quarter
Feb 10
New
Feb 17
First Quarter

Hourly Weather History & Observations

Time (CST) Temp. Windchill Dew Point Humidity Pressure Visibility Wind Dir Wind Speed Gust Speed Precip Events Conditions
12:15 AM 23.0 °F - 19.4 °F 86% 29.73 in 7.0 mi Calm Calm - N/A   Clear
12:35 AM 21.2 °F - 19.4 °F 93% 29.74 in 7.0 mi Calm Calm - N/A   Clear
12:55 AM 21.2 °F - 17.6 °F 86% 29.74 in 7.0 mi Calm Calm - N/A   Clear
1:15 AM 21.2 °F - 19.4 °F 93% 29.75 in 7.0 mi Calm Calm - N/A   Clear
1:35 AM 19.4 °F - 17.6 °F 93% 29.77 in 7.0 mi Calm Calm - N/A   Clear
1:55 AM 19.4 °F - 17.6 °F 93% 29.77 in 7.0 mi Calm Calm - N/A   Clear
2:15 AM 19.4 °F - 17.6 °F 93% 29.78 in 7.0 mi Calm Calm - N/A   Clear
2:35 AM 21.2 °F - 19.4 °F 93% 29.79 in 7.0 mi Calm Calm - N/A   Clear
2:55 AM 21.2 °F - 19.4 °F 93% 29.79 in 7.0 mi Calm Calm - N/A   Scattered Clouds
3:15 AM 21.2 °F - 19.4 °F 93% 29.80 in 7.0 mi Calm Calm - N/A   Scattered Clouds
3:35 AM 23.0 °F - 21.2 °F 93% 29.80 in 7.0 mi Calm Calm - N/A   Clear
3:55 AM 23.0 °F - 21.2 °F 93% 29.79 in 7.0 mi Calm Calm - N/A   Clear
4:15 AM 23.0 °F - 21.2 °F 93% 29.78 in 7.0 mi Calm Calm - N/A   Clear
4:35 AM 23.0 °F - 21.2 °F 93% 29.79 in 7.0 mi Calm Calm - N/A   Clear
4:55 AM 26.6 °F - 23.0 °F 86% 29.78 in 7.0 mi Calm Calm - N/A   Clear
5:15 AM 26.6 °F - 23.0 °F 86% 29.77 in 7.0 mi Calm Calm - N/A   Clear
5:35 AM 28.4 °F - 26.6 °F 93% 29.77 in 7.0 mi Calm Calm - N/A   Scattered Clouds
5:55 AM 30.2 °F - 28.4 °F 93% 29.78 in 10.0 mi Calm Calm - N/A   Mostly Cloudy
7:15 AM 32.0 °F - 28.4 °F 87% 29.73 in 7.0 mi Calm Calm - N/A   Mostly Cloudy
7:55 AM 32.0 °F - 30.2 °F 93% 29.74 in 10.0 mi Calm Calm - N/A   Mostly Cloudy
8:15 AM 32.0 °F - 30.2 °F 93% 29.74 in 10.0 mi Calm Calm - N/A   Scattered Clouds
8:35 AM 32.0 °F - 30.2 °F 93% 29.74 in 10.0 mi Calm Calm - N/A   Scattered Clouds
8:55 AM 32.0 °F - 30.2 °F 93% 29.73 in 10.0 mi Calm Calm - N/A   Clear
9:35 AM 33.8 °F - 30.2 °F 87% 29.71 in 10.0 mi Calm Calm - N/A   Clear
9:55 AM 33.8 °F 30.8 °F 32.0 °F 93% 29.70 in 10.0 mi South 3.5 mph - N/A   Scattered Clouds
10:15 AM 35.6 °F 31.7 °F 32.0 °F 87% 29.69 in 10.0 mi WSW 4.6 mph - N/A   Scattered Clouds
10:35 AM 35.6 °F - 32.0 °F 87% 29.68 in 10.0 mi Calm Calm - N/A   Scattered Clouds
11:15 AM 37.4 °F 33.8 °F 32.0 °F 81% 29.65 in 10.0 mi SSW 4.6 mph - N/A   Scattered Clouds
11:35 AM 39.2 °F 34.2 °F 32.0 °F 75% 29.63 in 10.0 mi SW 6.9 mph - N/A   Clear
11:55 AM 41.0 °F 35.2 °F 32.0 °F 70% 29.61 in 10.0 mi SW 9.2 mph - N/A   Scattered Clouds
12:15 PM 41.0 °F 35.8 °F 32.0 °F 70% 29.59 in 10.0 mi SW 8.1 mph - N/A   Scattered Clouds
12:35 PM 41.0 °F 34.7 °F 32.0 °F 70% 29.58 in 10.0 mi WSW 10.4 mph - N/A   Scattered Clouds
12:55 PM 41.0 °F 35.2 °F 32.0 °F 70% 29.57 in 10.0 mi WSW 9.2 mph - N/A   Clear
1:15 PM 41.0 °F 35.8 °F 32.0 °F 70% 29.56 in 10.0 mi WSW 8.1 mph 16.1 mph N/A   Clear
1:55 PM 42.8 °F 37.5 °F 32.0 °F 66% 29.54 in 10.0 mi WSW 9.2 mph - N/A   Scattered Clouds
2:35 PM 42.8 °F 36.6 °F 32.0 °F 66% 29.54 in 10.0 mi West 11.5 mph 19.6 mph N/A   Scattered Clouds
2:55 PM 42.8 °F 37.5 °F 32.0 °F 66% 29.52 in 10.0 mi WSW 9.2 mph - N/A   Mostly Cloudy
3:15 PM 42.8 °F 37.5 °F 32.0 °F 66% 29.52 in 10.0 mi WSW 9.2 mph - N/A   Scattered Clouds
3:35 PM 42.8 °F 36.2 °F 32.0 °F 66% 29.53 in 10.0 mi WSW 12.7 mph 19.6 mph N/A   Scattered Clouds
3:55 PM 42.8 °F 37.0 °F 32.0 °F 66% 29.53 in 10.0 mi West 10.4 mph 16.1 mph N/A   Clear
4:15 PM 42.8 °F 37.0 °F 32.0 °F 66% 29.53 in 10.0 mi West 10.4 mph 17.3 mph N/A   Mostly Cloudy
4:35 PM 41.0 °F 33.9 °F 32.0 °F 70% 29.54 in 10.0 mi West 12.7 mph 23.0 mph N/A   Overcast
4:55 PM 41.0 °F 33.1 °F 28.4 °F 61% 29.55 in 10.0 mi West 15.0 mph 32.2 mph N/A   Overcast
5:15 PM 37.4 °F 27.8 °F 30.2 °F 75% 29.57 in 10.0 mi West 17.3 mph 38.0 mph N/A   Overcast
5:35 PM 37.4 °F 28.5 °F 26.6 °F 65% 29.56 in 10.0 mi West 15.0 mph 24.2 mph N/A   Overcast
5:55 PM 37.4 °F 29.3 °F 28.4 °F 70% 29.56 in 10.0 mi West 12.7 mph 25.3 mph N/A   Overcast
6:15 PM 35.6 °F 27.5 °F 28.4 °F 75% 29.54 in 10.0 mi West 11.5 mph 18.4 mph N/A   Scattered Clouds
6:35 PM 35.6 °F 26.2 °F 26.6 °F 70% 29.53 in 10.0 mi WSW 15.0 mph 21.9 mph N/A   Clear
6:55 PM 35.6 °F 24.8 °F 26.6 °F 70% 29.53 in 10.0 mi West 19.6 mph 27.6 mph N/A   Mostly Cloudy
7:15 PM 33.8 °F 23.2 °F 26.6 °F 75% 29.53 in 10.0 mi West 17.3 mph 29.9 mph N/A   Mostly Cloudy
7:35 PM 32.0 °F 19.5 °F 23.0 °F 69% 29.56 in 3.0 mi West 21.9 mph 34.5 mph N/A Snow Light Snow
8:15 PM 30.2 °F 16.5 °F 15.8 °F 55% 29.59 in 10.0 mi West 24.2 mph 36.8 mph N/A   Scattered Clouds
8:35 PM 26.6 °F 10.8 °F 15.8 °F 64% 29.63 in 1.8 mi NW 27.6 mph 40.3 mph N/A Snow Light Snow
8:55 PM 26.6 °F 14.3 °F 12.2 °F 55% 29.65 in 10.0 mi NW 16.1 mph 25.3 mph N/A   Overcast
9:15 PM 23.0 °F 7.6 °F 8.6 °F 54% 29.68 in 10.0 mi WNW 21.9 mph 36.8 mph N/A   Overcast
9:35 PM 21.2 °F 4.9 °F 10.4 °F 63% 29.71 in 10.0 mi WNW 23.0 mph 31.1 mph N/A   Overcast
9:55 PM 19.4 °F 2.8 °F 8.6 °F 63% 29.73 in 7.0 mi WNW 21.9 mph 33.4 mph N/A   Overcast
10:15 PM 19.4 °F 4.1 °F 8.6 °F 63% 29.75 in 10.0 mi WNW 18.4 mph 32.2 mph N/A   Overcast
10:35 PM 17.6 °F 2.2 °F 5.0 °F 58% 29.78 in 10.0 mi WNW 17.3 mph 29.9 mph N/A   Overcast
10:55 PM 15.8 °F -0.2 °F 3.2 °F 58% 29.80 in 10.0 mi WNW 17.3 mph 23.0 mph N/A   Overcast
11:15 PM 15.8 °F -1.1 °F 1.4 °F 53% 29.82 in 10.0 mi WNW 19.6 mph 28.8 mph N/A   Overcast
11:35 PM 14.0 °F -3.4 °F 1.4 °F 57% 29.84 in 10.0 mi WNW 19.6 mph 33.4 mph N/A   Overcast
11:55 PM 12.2 °F -6.3 °F -0.4 °F 57% 29.86 in 10.0 mi NW 20.7 mph 38.0 mph N/A   Mostly Cloudy